DW8343 Weather Reports


Display with metric or nautical units.
time (UTC)temp
F
wind
direction
speed
MPH
gust
MPH
rain 1hr
in
rain 24hr
in
rain mn
in
humidity
%
barometer
mb
20260904064948 80 288 3.0 6.0 0.00 0.00 0.00 76 1014.4
20260904064444 80 295 2.0 4.0 0.00 0.00 0.00 76 1014.4
20260904063939 80 76 0.0 6.0 0.00 0.00 0.00 76 1014.5
20260904063436 80 83 1.0 4.0 0.00 0.00 0.00 76 1014.5
20260904062931 80 63 1.0 6.0 0.00 0.00 0.00 76 1014.4
20260904062427 80 78 0.0 6.0 0.00 0.00 0.00 76 1014.5
20260904061922 81 272 1.0 3.0 0.00 0.00 0.00 76 1014.5
20260904061419 81 13 1.0 3.0 0.00 0.00 0.00 75 1014.6
20260904060915 81 222 3.0 6.0 0.00 0.00 0.00 75 1014.4
20260904060411 81 256 2.0 3.0 0.00 0.00 0.00 75 1014.6
20260904055906 81 338 3.0 6.0 0.00 0.00 0.00 75 1014.7
20260904055401 81 193 2.0 3.0 0.00 0.00 0.00 75 1014.7
20260904054856 81 67 2.0 3.0 0.00 0.00 0.00 74 1014.6
20260904054352 81 16 3.0 4.0 0.00 0.00 0.00 74 1014.4
20260904053848 81 82 2.0 2.0 0.00 0.00 0.00 74 1014.4
20260904053346 82 3 3.0 4.0 0.00 0.00 0.00 74 1014.5
20260904052843 82 325 1.0 2.0 0.00 0.00 0.00 73 1014.4
20260904052339 82 227 2.0 6.0 0.00 0.00 0.00 73 1014.4
20260904051834 82 230 1.0 3.0 0.00 0.00 0.00 73 1014.4
20260904051325 82 293 1.0 3.0 0.00 0.00 0.00 73 1014.2
20260904050819 82 176 2.0 6.0 0.00 0.00 0.00 72 1014.2
20260904050316 82 87 2.0 2.0 0.00 0.00 0.00 72 1014.4
20260904045810 82 273 1.0 3.0 0.00 0.00 0.00 72 1014.3
20260904045307 82 224 0.0 6.0 0.00 0.00 0.00 72 1014.4
20260904044800 82 345 0.0 4.0 0.00 0.00 0.00 72 1014.2
20260904044257 82 186 1.0 4.0 0.00 0.00 0.00 71 1014.3
20260904043752 82 165 1.0 6.0 0.00 0.00 0.00 71 1014.4
20260904043249 82 282 1.0 3.0 0.00 0.00 0.00 71 1014.5
20260904042743 83 39 1.0 3.0 0.00 0.00 0.00 71 1014.4
20260904042240 83 34 3.0 4.0 0.00 0.00 0.00 70 1014.5
20260904041739 83 69 2.0 4.0 0.00 0.00 0.00 70 1014.5
20260904041236 83 64 1.0 6.0 0.00 0.00 0.00 70 1014.5
20260904040731 83 29 0.0 3.0 0.00 0.00 0.00 69 1014.5
20260904040227 83 210 1.0 4.0 0.00 0.00 0.00 69 1014.5
20260904035723 83 36 3.0 9.0 0.00 0.00 0.00 69 1014.5
20260904035218 84 16 1.0 3.0 0.00 0.00 0.00 68 1014.7
20260904034717 84 259 2.0 3.0 0.00 0.00 0.00 68 1014.6
20260904034213 84 78 0.0 3.0 0.00 0.00 0.00 68 1014.8
20260904033708 84 313 1.0 3.0 0.00 0.00 0.00 67 1014.5
20260904033205 84 100 2.0 3.0 0.00 0.00 0.00 67 1014.5
20260904032701 85 313 1.0 7.0 0.00 0.00 0.00 66 1014.7
20260904032159 85 201 0.0 3.0 0.00 0.00 0.00 66 1014.3
20260904031654 85 116 3.0 3.0 0.00 0.00 0.00 66 1014.6
20260904031149 85 39 1.0 2.0 0.00 0.00 0.00 66 1014.6
20260904030645 85 306 3.0 4.0 0.00 0.00 0.00 65 1014.4
20260904030140 85 76 2.0 2.0 0.00 0.00 0.00 65 1014.4
20260904025636 85 2 1.0 4.0 0.00 0.00 0.00 65 1014.4
20260904025131 85 40 1.0 2.0 0.00 0.00 0.00 65 1014.2
20260904024626 86 75 3.0 4.0 0.00 0.00 0.00 64 1014.5
20260904024122 86 239 1.0 7.0 0.00 0.00 0.00 64 1014.1
20260904023617 86 280 1.0 2.0 0.00 0.00 0.00 64 1014.1
20260904023108 86 27 2.0 6.0 0.00 0.00 0.00 64 1014.0
20260904022608 86 252 1.0 3.0 0.00 0.00 0.00 63 1014.0
20260904022105 86 290 0.0 4.0 0.00 0.00 0.00 63 1013.9
20260904021600 87 148 2.0 7.0 0.00 0.00 0.00 62 1013.8
20260904021055 87 116 0.0 6.0 0.00 0.00 0.00 62 1013.7
20260904020550 87 279 2.0 6.0 0.00 0.00 0.00 61 1013.5
20260904020044 87 141 2.0 10.0 0.00 0.00 0.00 61 1013.7
20260904015539 87 241 3.0 6.0 0.00 0.00 0.00 60 1013.7
20260904015038 87 168 1.0 3.0 0.00 0.00 0.00 60 1013.5
20260904014532 87 96 2.0 4.0 0.00 0.00 0.00 60 1013.4
20260904014028 87 47 2.0 4.0 0.00 0.00 0.00 60 1013.2
20260904013524 88 149 2.0 4.0 0.00 0.00 0.00 59 1013.4
20260904013020 88 85 3.0 6.0 0.00 0.00 0.00 59 1013.3
20260904012515 88 228 5.0 7.0 0.00 0.00 0.00 59 1013.3
20260904012015 88 248 2.0 7.0 0.00 0.00 0.00 59 1013.2
20260904011509 89 90 2.0 3.0 0.00 0.00 0.00 59 1012.8
20260904011004 89 59 1.0 7.0 0.00 0.00 0.00 59 1012.8
20260904010500 89 258 3.0 4.0 0.00 0.00 0.00 58 1012.7
20260904005955 89 38 2.0 7.0 0.00 0.00 0.00 58 1012.8
20260904005450 89 5 4.0 8.0 0.00 0.00 0.00 57 1012.6
20260904004945 90 312 5.0 9.0 0.00 0.00 0.00 56 1012.4
20260904004442 90 158 1.0 4.0 0.00 0.00 0.00 56 1012.5
20260904003941 90 76 4.0 6.0 0.00 0.00 0.00 56 1012.4
20260904003438 90 7 1.0 7.0 0.00 0.00 0.00 55 1012.6
20260904002932 91 173 2.0 7.0 0.00 0.00 0.00 55 1012.5
20260904002429 91 66 2.0 8.0 0.00 0.00 0.00 54 1012.3
20260904001927 91 10 4.0 10.0 0.00 0.00 0.00 55 1012.1
20260904001423 91 287 1.0 7.0 0.00 0.00 0.00 55 1012.4
20260904000918 91 305 2.0 6.0 0.00 0.00 0.00 54 1012.5
20260904000418 91 232 2.0 6.0 0.00 0.00 0.00 54 1012.5
20260903235913 91 59 3.0 6.0 0.00 0.00 0.00 54 1012.3
20260903235409 92 63 5.0 9.0 0.00 0.00 0.00 53 1012.6
20260903234908 92 87 1.0 3.0 0.00 0.00 0.00 53 1012.5
20260903234404 92 155 2.0 7.0 0.00 0.00 0.00 53 1012.3
20260903233900 92 43 4.0 7.0 0.00 0.00 0.00 53 1012.3
20260903233356 92 243 2.0 8.0 0.00 0.00 0.00 53 1012.3
20260903232855 92 275 2.0 9.0 0.00 0.00 0.00 52 1012.3
20260903232351 93 118 3.0 6.0 0.00 0.00 0.00 52 1012.3
20260903231850 93 44 2.0 7.0 0.00 0.00 0.00 52 1012.1
20260903231345 93 260 1.0 7.0 0.00 0.00 0.00 52 1012.2
20260903230841 93 270 2.0 7.0 0.00 0.00 0.00 52 1012.0
20260903230336 93 143 3.0 13.0 0.00 0.00 0.00 52 1012.0
20260903225833 93 350 2.0 11.0 0.00 0.00 0.00 51 1011.9
20260903225328 94 91 6.0 10.0 0.00 0.00 0.00 51 1012.1
20260903224824 94 36 3.0 8.0 0.00 0.00 0.00 52 1012.1
20260903224320 94 26 2.0 4.0 0.00 0.00 0.00 50 1012.1
20260903223816 94 12 1.0 3.0 0.00 0.00 0.00 50 1012.0
20260903223314 94 102 1.0 6.0 0.00 0.00 0.00 50 1011.9
20260903222809 95 138 1.0 6.0 0.00 0.00 0.00 49 1012.1
20260903222308 95 63 0.0 3.0 0.00 0.00 0.00 49 1012.1
20260903221803 95 240 4.0 6.0 0.00 0.00 0.00 48 1012.1
20260903221303 95 49 4.0 7.0 0.00 0.00 0.00 49 1012.0
20260903220800 95 45 1.0 3.0 0.00 0.00 0.00 48 1012.1
20260903220255 95 308 2.0 8.0 0.00 0.00 0.00 49 1012.2
20260903215753 95 51 1.0 6.0 0.00 0.00 0.00 50 1012.3
20260903215250 94 277 2.0 6.0 0.00 0.00 0.00 49 1012.4
20260903214748 95 21 4.0 11.0 0.00 0.00 0.00 49 1012.5
20260903214244 97 223 3.0 7.0 0.00 0.00 0.00 46 1012.3
20260903213738 96 22 2.0 4.0 0.00 0.00 0.00 48 1012.2
20260903213234 96 53 2.0 7.0 0.00 0.00 0.00 49 1012.3
20260903212729 96 311 1.0 6.0 0.00 0.00 0.00 48 1012.6
20260903212226 96 51 2.0 10.0 0.00 0.00 0.00 48 1012.3
20260903211719 96 250 4.0 6.0 0.00 0.00 0.00 48 1012.5
20260903211216 96 42 2.0 7.0 0.00 0.00 0.00 48 1012.4
20260903210712 97 282 2.0 3.0 0.00 0.00 0.00 46 1012.5
20260903210207 96 44 6.0 11.0 0.00 0.00 0.00 47 1012.4
20260903205707 96 17 2.0 4.0 0.00 0.00 0.00 47 1012.6
20260903205206 97 42 2.0 8.0 0.00 0.00 0.00 48 1012.7
20260903204702 96 136 2.0 7.0 0.00 0.00 0.00 47 1012.7
20260903204158 97 65 5.0 11.0 0.00 0.00 0.00 48 1013.0
20260903203653 97 25 2.0 7.0 0.00 0.00 0.00 48 1012.7
20260903203148 95 234 1.0 7.0 0.00 0.00 0.00 50 1012.7
20260903202643 97 78 4.0 6.0 0.00 0.00 0.00 47 1013.0
20260903202138 96 186 2.0 7.0 0.00 0.00 0.00 48 1013.0
20260903201632 97 11 3.0 8.0 0.00 0.00 0.00 47 1013.2
20260903201132 97 46 4.0 10.0 0.00 0.00 0.00 49 1013.1
20260903200628 97 338 1.0 3.0 0.00 0.00 0.00 49 1013.2
20260903200122 96 314 1.0 4.0 0.00 0.00 0.00 48 1013.2
20260903195618 98 67 2.0 7.0 0.00 0.00 0.00 47 1013.3
20260903195113 97 344 2.0 6.0 0.00 0.00 0.00 47 1013.2
20260903194608 98 8 1.0 6.0 0.00 0.00 0.00 45 1013.2
20260903194103 98 270 3.0 6.0 0.00 0.00 0.00 45 1013.2
20260903193559 97 97 1.0 6.0 0.00 0.00 0.00 46 1013.3
20260903193054 98 253 2.0 3.0 0.00 0.00 0.00 45 1013.3
20260903192551 96 317 1.0 4.0 0.00 0.00 0.00 47 1013.4
20260903192046 97 54 1.0 4.0 0.00 0.00 0.00 49 1013.5
20260903191537 96 286 2.0 9.0 0.00 0.00 0.00 50 1013.4
20260903191037 96 11 3.0 6.0 0.00 0.00 0.00 48 1013.5
20260903190536 95 40 3.0 6.0 0.00 0.00 0.00 49 1013.7
20260903190030 97 71 2.0 4.0 0.00 0.00 0.00 48 1013.7
20260903185526 96 254 2.0 4.0 0.00 0.00 0.00 48 1013.8
20260903185021 95 353 3.0 4.0 0.00 0.00 0.00 50 1013.9
20260903184518 96 0 2.0 7.0 0.00 0.00 0.00 49 1014.0
20260903184017 94 227 3.0 7.0 0.00 0.00 0.00 50 1014.2
20260903183516 94 227 3.0 7.0 0.00 0.00 0.00 50 1014.2
20260903183012 94 14 1.0 6.0 0.00 0.00 0.00 53 1014.2
20260903182510 94 256 1.0 4.0 0.00 0.00 0.00 54 1014.4
20260903182007 95 269 2.0 7.0 0.00 0.00 0.00 49 1014.3
20260903181500 94 227 1.0 6.0 0.00 0.00 0.00 52 1014.4
20260903180959 94 25 3.0 4.0 0.00 0.00 0.00 52 1014.5
20260903180455 93 113 4.0 7.0 0.00 0.00 0.00 52 1014.5
20260903175954 93 55 3.0 8.0 0.00 0.00 0.00 53 1014.5
20260903175448 94 276 2.0 7.0 0.00 0.00 0.00 53 1014.5
20260903174947 93 29 2.0 6.0 0.00 0.00 0.00 54 1014.7
20260903174443 92 115 2.0 6.0 0.00 0.00 0.00 54 1014.7
20260903173942 92 44 4.0 8.0 0.00 0.00 0.00 56 1014.8
20260903173438 93 232 1.0 6.0 0.00 0.00 0.00 55 1014.9
20260903172933 92 71 2.0 9.0 0.00 0.00 0.00 54 1015.0
20260903172428 92 69 3.0 4.0 0.00 0.00 0.00 55 1015.0
20260903171924 92 60 2.0 3.0 0.00 0.00 0.00 55 1014.9
20260903171419 91 223 3.0 4.0 0.00 0.00 0.00 55 1014.9
20260903170919 91 351 1.0 7.0 0.00 0.00 0.00 58 1015.1
20260903170413 92 225 5.0 7.0 0.00 0.00 0.00 55 1015.2
20260903165912 91 75 2.0 7.0 0.00 0.00 0.00 59 1015.2
20260903165407 90 72 2.0 4.0 0.00 0.00 0.00 57 1015.2
20260903164902 92 202 2.0 4.0 0.00 0.00 0.00 56 1015.3
20260903164402 90 342 1.0 3.0 0.00 0.00 0.00 57 1015.3
20260903163901 89 336 1.0 7.0 0.00 0.00 0.00 60 1015.3
20260903163358 90 221 1.0 3.0 0.00 0.00 0.00 58 1015.4
20260903162853 90 271 1.0 2.0 0.00 0.00 0.00 58 1015.5
20260903162350 90 189 1.0 7.0 0.00 0.00 0.00 60 1015.6
20260903161845 89 275 1.0 4.0 0.00 0.00 0.00 60 1015.3
20260903161340 89 332 2.0 4.0 0.00 0.00 0.00 61 1015.5
20260903160836 88 46 1.0 4.0 0.00 0.00 0.00 63 1015.4
20260903160335 87 22 3.0 6.0 0.00 0.00 0.00 64 1015.4
20260903155833 88 274 2.0 4.0 0.00 0.00 0.00 62 1015.3
20260903155329 87 35 2.0 6.0 0.00 0.00 0.00 64 1015.5
20260903154824 87 294 2.0 3.0 0.00 0.00 0.00 65 1015.4
20260903154320 86 53 2.0 8.0 0.00 0.00 0.00 66 1015.4
20260903153816 86 185 2.0 6.0 0.00 0.00 0.00 66 1015.3
20260903153311 85 225 1.0 6.0 0.00 0.00 0.00 66 1015.5
20260903152809 85 42 3.0 6.0 0.00 0.00 0.00 68 1015.5
20260903152306 85 34 2.0 4.0 0.00 0.00 0.00 68 1015.6
20260903151803 84 60 5.0 8.0 0.00 0.00 0.00 68 1015.7
20260903151254 85 241 1.0 4.0 0.00 0.00 0.00 68 1015.8
20260903150753 86 240 2.0 3.0 0.00 0.00 0.00 66 1015.6
20260903150248 84 69 2.0 3.0 0.00 0.00 0.00 69 1015.8
20260903145744 84 309 0.0 3.0 0.00 0.00 0.00 70 1015.8
20260903145239 84 195 2.0 9.0 0.00 0.00 0.00 70 1015.9
20260903144737 83 277 2.0 4.0 0.00 0.00 0.00 70 1016.1
20260903144233 83 32 2.0 7.0 0.00 0.00 0.00 71 1015.8
20260903143729 82 59 1.0 8.0 0.00 0.00 0.00 72 1016.2
20260903143225 82 171 1.0 4.0 0.00 0.00 0.00 73 1016.1
20260903142720 82 287 5.0 10.0 0.00 0.00 0.00 73 1016.1
20260903142217 82 102 5.0 8.0 0.00 0.00 0.00 73 1016.2
20260903141712 82 325 4.0 11.0 0.00 0.00 0.00 74 1016.2
20260903141208 82 34 1.0 4.0 0.00 0.00 0.00 73 1016.2
20260903140703 81 262 4.0 6.0 0.00 0.00 0.00 75 1016.4
20260903140158 80 270 4.0 7.0 0.00 0.00 0.00 75 1016.5
20260903135653 80 14 2.0 7.0 0.00 0.00 0.00 76 1016.5
20260903135148 80 250 3.0 8.0 0.00 0.00 0.00 75 1016.5
20260903134646 80 66 2.0 4.0 0.00 0.00 0.00 75 1016.5
20260903134137 80 84 1.0 6.0 0.00 0.00 0.00 76 1016.2
20260903133635 79 224 2.0 7.0 0.00 0.00 0.00 76 1016.3
20260903133130 80 296 1.0 6.0 0.00 0.00 0.00 76 1016.6
20260903132624 79 188 2.0 2.0 0.00 0.00 0.00 76 1016.4
20260903132120 79 128 0.0 3.0 0.00 0.00 0.00 77 1016.3
20260903131619 78 124 2.0 4.0 0.00 0.00 0.00 78 1016.2
20260903131118 78 134 0.0 3.0 0.00 0.00 0.00 79 1016.2
20260903130616 77 258 0.0 3.0 0.00 0.00 0.00 79 1016.3
20260903130109 77 272 0.0 6.0 0.00 0.00 0.00 79 1016.1
20260903125607 77 198 2.0 4.0 0.00 0.00 0.00 79 1015.9
20260903125102 77 241 1.0 6.0 0.00 0.00 0.00 79 1016.1
20260903124556 77 282 1.0 4.0 0.00 0.00 0.00 79 1016.2
20260903124057 77 249 1.0 4.0 0.00 0.00 0.00 79 1015.9
20260903123556 77 169 3.0 4.0 0.00 0.00 0.00 79 1015.8
20260903123054 77 305 3.0 4.0 0.00 0.00 0.00 79 1015.8
20260903122549 77 21 2.0 3.0 0.00 0.00 0.00 79 1015.8
20260903122048 77 110 2.0 6.0 0.00 0.00 0.00 79 1015.6
20260903121543 77 49 2.0 2.0 0.00 0.00 0.00 79 1015.7
20260903121039 77 263 2.0 3.0 0.00 0.00 0.00 78 1015.4
20260903120538 77 204 3.0 3.0 0.00 0.00 0.00 78 1015.6
20260903120033 77 343 0.0 3.0 0.00 0.00 0.00 78 1015.3
20260903115531 77 243 2.0 6.0 0.00 0.00 0.00 78 1015.4
20260903115026 77 224 3.0 6.0 0.00 0.00 0.00 78 1015.5
20260903114521 77 286 0.0 1.0 0.00 0.00 0.00 78 1015.4
20260903114017 77 240 1.0 2.0 0.00 0.00 0.00 77 1015.3
20260903113512 78 193 0.0 3.0 0.00 0.00 0.00 77 1015.2
20260903113009 78 337 1.0 3.0 0.00 0.00 0.00 76 1015.1
20260903112504 78 135 3.0 6.0 0.00 0.00 0.00 76 1015.1
20260903112003 78 306 2.0 4.0 0.00 0.00 0.00 76 1015.3
20260903111457 78 276 1.0 6.0 0.00 0.00 0.00 76 1015.1
20260903110954 78 77 2.0 4.0 0.00 0.00 0.00 76 1015.2
20260903110449 78 270 0.0 2.0 0.00 0.00 0.00 76 1015.1
20260903105943 78 240 0.0 2.0 0.00 0.00 0.00 76 1015.1
20260903105439 78 207 0.0 3.0 0.00 0.00 0.00 75 1015.0
20260903104938 78 270 4.0 8.0 0.00 0.00 0.00 75 1015.2
20260903104438 78 233 1.0 2.0 0.00 0.00 0.00 75 1015.2
20260903103935 79 260 1.0 4.0 0.00 0.00 0.00 75 1015.0
20260903103430 79 261 1.0 2.0 0.00 0.00 0.00 74 1015.0
20260903102926 79 291 2.0 3.0 0.00 0.00 0.00 74 1014.9
20260903102421 79 264 1.0 3.0 0.00 0.00 0.00 74 1015.0
20260903101920 79 152 2.0 4.0 0.00 0.00 0.00 73 1015.0
20260903101415 79 113 2.0 3.0 0.00 0.00 0.00 73 1015.1
20260903100910 79 60 2.0 4.0 0.00 0.00 0.00 73 1015.1
20260903100405 79 43 1.0 6.0 0.00 0.00 0.00 73 1015.1
20260903095902 80 111 1.0 2.0 0.00 0.00 0.00 73 1015.1
20260903095356 80 42 3.0 6.0 0.00 0.00 0.00 72 1015.0
20260903094851 80 279 2.0 2.0 0.00 0.00 0.00 72 1014.9
20260903094346 80 298 0.0 3.0 0.00 0.00 0.00 72 1014.9
20260903093842 80 291 1.0 2.0 0.00 0.00 0.00 72 1015.0
20260903093337 80 351 1.0 1.0 0.00 0.00 0.00 71 1015.0
20260903092832 80 181 1.0 3.0 0.00 0.00 0.00 71 1015.1
20260903092326 81 263 3.0 4.0 0.00 0.00 0.00 70 1015.1
20260903091825 81 251 2.0 6.0 0.00 0.00 0.00 70 1014.9
20260903091319 81 86 3.0 7.0 0.00 0.00 0.00 69 1014.9
20260903090815 81 48 2.0 3.0 0.00 0.00 0.00 69 1015.0
20260903090315 81 272 3.0 4.0 0.00 0.00 0.00 69 1015.2
20260903085813 82 98 1.0 4.0 0.00 0.00 0.00 68 1015.1
20260903085308 82 161 2.0 3.0 0.00 0.00 0.00 68 1015.1
20260903084806 82 249 1.0 4.0 0.00 0.00 0.00 68 1015.0
20260903084300 82 48 1.0 7.0 0.00 0.00 0.00 68 1015.1
20260903083755 82 201 0.0 2.0 0.00 0.00 0.00 68 1015.1
20260903083250 82 234 1.0 7.0 0.00 0.00 0.00 67 1015.0
20260903082749 82 69 1.0 3.0 0.00 0.00 0.00 67 1015.2
20260903082245 82 50 3.0 7.0 0.00 0.00 0.00 67 1015.1
20260903081745 82 25 4.0 6.0 0.00 0.00 0.00 66 1015.3
20260903081241 82 169 1.0 3.0 0.00 0.00 0.00 66 1015.2
20260903080737 82 75 1.0 2.0 0.00 0.00 0.00 66 1015.1
20260903080234 82 174 2.0 2.0 0.00 0.00 0.00 66 1015.0
20260903075734 83 289 0.0 3.0 0.00 0.00 0.00 65 1014.8
20260903075229 83 248 1.0 3.0 0.00 0.00 0.00 65 1015.0
20260903074728 83 28 2.0 4.0 0.00 0.00 0.00 65 1015.1
20260903074223 83 232 1.0 3.0 0.00 0.00 0.00 64 1014.9
20260903073718 83 91 2.0 4.0 0.00 0.00 0.00 64 1015.1
20260903073213 83 232 1.0 1.0 0.00 0.00 0.00 64 1015.1
20260903072709 83 136 1.0 1.0 0.00 0.00 0.00 63 1015.0
20260903072206 83 244 2.0 4.0 0.00 0.00 0.00 63 1015.1
20260903071702 84 159 1.0 3.0 0.00 0.00 0.00 63 1015.0
20260903071157 84 242 2.0 3.0 0.00 0.00 0.00 63 1015.1
20260903070656 84 48 0.0 1.0 0.00 0.00 0.00 62 1015.2
20260903070152 84 59 2.0 3.0 0.00 0.00 0.00 62 1015.1
20260903065647 84 71 1.0 2.0 0.00 0.00 0.00 62 1015.0